Weather History for KOMK - May, 2013

Change the Weather History Date:

Tuesday, May 14, 2013

  Actual Average Record
Temperature  
Mean Temperature 54 °F 58 °F  
Max Temperature 68 °F 72 °F 94 °F (1931)
Min Temperature 40 °F 44 °F 30 °F (1964)
Degree Days  
Heating Degree Days 11 8  
Month to date heating degree days 56 137  
Since 1 July heating degree days 5869 6176  
Cooling Degree Days 0 1  
Month to date cooling degree days 23 4  
Year to date cooling degree days 23 5  
Growing Degree Days 2 (Base 50)    
Moisture  
Dew Point 29 °F    
Average Humidity 45    
Maximum Humidity 70    
Minimum Humidity 20    
Precipitation  
Precipitation 0.00 in 0.05 in 0.30 in (1943)
Month to date precipitation 0.01 0.56  
Year to date precipitation 2.53 5.77  
Sea Level Pressure  
Sea Level Pressure 30.08 in    
Wind  
Wind Speed 5 mph (SSW)    
Max Wind Speed 15 mph    
Max Gust Speed 21 mph    
Visibility 10 miles    
Events      
T = Trace of Precipitation, MM = Missing Value Source: NWS Daily Summary

Daily Weather History Graph

Daily Weather History Graph

Search for Another Location

Airport or City:

Trip Planner

Search our weather history database for the weather conditions in past years. The results will help you decide how hot, cold, wet, or windy it might be!

Date:

Astronomy

May. 14, 2013 Rise Set
Actual Time 5:18 AM PDT 8:31 PM PDT
Civil Twilight 4:41 AM PDT 9:08 PM PDT
Nautical Twilight 3:52 AM PDT 9:57 PM PDT
Astronomical Twilight 2:50 AM PDT 11:00 PM PDT
Moon 9:03 AM PDT (5/14) No Moon Set
Length of Visible Light 16h 27m
Length of Day
15h 12m
Waxing Crescent, 19% of the Moon is Illuminated
May 14
Waxing Crescent
May 17
First Quarter
May 24
Full
May 31
Last Quarter
Jun 8
New

Hourly Weather History & Observations

Time (PDT) Temp. Windchill Dew Point Humidity Pressure Visibility Wind Dir Wind Speed Gust Speed Precip Events Conditions
12:53 AM 44.1 °F 41.5 °F 28.0 °F 53% 30.06 in 10.0 mi South 4.6 mph - N/A   Clear
1:53 AM 46.9 °F - 27.0 °F 46% 30.09 in 10.0 mi South 5.8 mph - N/A   Clear
2:53 AM 48.0 °F - 28.0 °F 46% 30.10 in 10.0 mi South 8.1 mph 16.1 mph N/A   Clear
3:53 AM 39.9 °F 36.7 °F 30.0 °F 68% 30.12 in 10.0 mi WSW 4.6 mph - N/A   Clear
4:53 AM 41.0 °F - 28.9 °F 62% 30.12 in 10.0 mi Calm Calm - N/A   Clear
5:53 AM 41.0 °F 39.0 °F 30.9 °F 67% 30.13 in 10.0 mi NW 3.5 mph - N/A   Clear
6:53 AM 44.1 °F 42.5 °F 33.1 °F 65% 30.15 in 10.0 mi WNW 3.5 mph - N/A   Clear
7:53 AM 48.0 °F - 33.1 °F 56% 30.15 in 10.0 mi Calm Calm - N/A   Clear
8:53 AM 53.1 °F - 30.9 °F 43% 30.14 in 10.0 mi Calm Calm - N/A   Clear
9:53 AM 55.0 °F - 30.9 °F 40% 30.13 in 10.0 mi Variable 4.6 mph - N/A   Clear
10:53 AM 59.0 °F - 27.0 °F 29% 30.12 in 10.0 mi Variable 5.8 mph - N/A   Clear
11:53 AM 61.0 °F - 28.0 °F 29% 30.11 in 10.0 mi SSE 6.9 mph - N/A   Clear
12:53 PM 64.0 °F - 28.0 °F 26% 30.09 in 10.0 mi Variable 6.9 mph 19.6 mph N/A   Partly Cloudy
1:53 PM 64.9 °F - 26.1 °F 23% 30.07 in 10.0 mi Variable 5.8 mph - N/A   Clear
2:53 PM 66.9 °F - 24.1 °F 20% 30.05 in 10.0 mi South 11.5 mph 18.4 mph N/A   Clear
3:53 PM 66.9 °F - 26.1 °F 21% 30.04 in 10.0 mi SSW 9.2 mph - N/A   Clear
4:53 PM 66.9 °F - 25.0 °F 21% 30.03 in 10.0 mi South 9.2 mph - N/A   Clear
5:53 PM 66.9 °F - 27.0 °F 22% 30.02 in 10.0 mi SSW 6.9 mph - N/A   Clear
6:53 PM 66.0 °F - 27.0 °F 23% 30.01 in 10.0 mi SSW 5.8 mph - N/A   Clear
7:53 PM 61.0 °F - 32.0 °F 34% 30.01 in 10.0 mi SSW 3.5 mph - N/A   Clear
8:53 PM 54.0 °F - 30.0 °F 40% 30.02 in 10.0 mi SSW 5.8 mph - N/A   Clear
9:53 PM 52.0 °F - 28.9 °F 41% 30.04 in 10.0 mi South 5.8 mph - N/A   Clear
10:53 PM 51.1 °F - 30.0 °F 44% 30.04 in 10.0 mi West 5.8 mph - N/A   Clear
11:53 PM 48.9 °F - 30.9 °F 50% 30.04 in 10.0 mi WNW 6.9 mph - N/A   Clear